Location: ?????????
(38.0736°N, 23.2119°E)
Time: 04:44:56
(UTC+00:00)

Okean 2 Rocket - Pass Details

Date: 18 April 2024
Orbit: 613 x 639 km, 82.5° (Epoch: 20 May)

Event Time Altitude Azimuth Distance (km) Brightness Sun altitude
Exits shadow 18:40:22 15° 179° (S) 1,733 5.0 -17.8°
Maximum altitude 18:44:06 76° 96° (E) 662 3.0 -18.5°
Drops below altitude 10° 18:48:37 10° 11° (N) 2,032 6.0 -19.2°
Sets 18:50:52 0° 9° (N) 2,942 6.8 -19.6°
